FW0292 Weather Reports


time (UTC)temp
C
wind
direction
speed
KPH
gust
KPH
rain 1hr
cm
rain 24hr
cm
rain mn
cm
humidity
%
barometer
mb
20260507213502 12 94 3.2 6.4 0.00 0.00 0.00 75 1016.6
20260507213002 12 79 1.6 4.8 0.00 0.00 0.00 75 1016.6
20260507212502 12 65 1.6 6.4 0.00 0.00 0.00 74 1016.5
20260507212002 12 61 1.6 6.4 0.00 0.00 0.00 74 1016.5
20260507211502 12 47 1.6 6.4 0.00 0.00 0.00 74 1016.4
20260507211002 12 38 0.0 3.2 0.00 0.00 0.00 74 1016.4
20260507210502 12 0 0.0 0.0 0.00 0.00 0.00 73 1016.3
20260507210002 12 37 0.0 3.2 0.00 0.00 0.00 73 1016.3
20260507205502 12 37 0.0 3.2 0.00 0.00 0.00 73 1016.3
20260507205023 12 37 0.0 3.2 0.00 0.00 0.00 73 1016.4
20260507204502 12 37 0.0 3.2 0.00 0.00 0.00 73 1016.4
20260507204002 12 36 0.0 1.6 0.00 0.00 0.00 72 1016.4
20260507203502 12 36 0.0 1.6 0.00 0.00 0.00 72 1016.3
20260507203002 12 0 0.0 0.0 0.00 0.00 0.00 72 1016.1
20260507202523 12 36 0.0 1.6 0.00 0.00 0.00 72 1016.1
20260507202002 12 36 0.0 1.6 0.00 0.00 0.00 71 1016.0
20260507201502 12 35 0.0 3.2 0.00 0.00 0.00 71 1016.0
20260507201023 12 26 1.6 3.2 0.00 0.00 0.00 71 1015.9
20260507200523 12 14 1.6 6.4 0.00 0.00 0.00 71 1015.8
20260507200002 12 8 1.6 6.4 0.00 0.00 0.00 71 1015.7
20260507195502 12 21 1.6 4.8 0.00 0.00 0.00 71 1015.6
20260507195002 12 46 1.6 4.8 0.00 0.00 0.00 72 1015.6
20260507194523 13 72 1.6 4.8 0.00 0.00 0.00 72 1015.5
20260507194002 13 87 0.0 4.8 0.00 0.00 0.00 72 1015.5
20260507193502 13 95 0.0 4.8 0.00 0.00 0.00 71 1015.5
20260507193002 13 95 0.0 1.6 0.00 0.00 0.00 71 1015.4
20260507192502 13 95 0.0 3.2 0.00 0.00 0.00 71 1015.4
20260507192002 13 92 0.0 4.8 0.00 0.00 0.00 71 1015.4
20260507191502 13 88 0.0 4.8 0.00 0.00 0.00 71 1015.4
20260507191002 13 82 0.0 4.8 0.00 0.00 0.00 71 1015.3
20260507190502 13 87 1.6 4.8 0.00 0.00 0.00 72 1015.3
20260507190003 14 80 1.6 4.8 0.00 0.00 0.00 72 1015.3
20260507185502 14 47 1.6 4.8 0.00 0.00 0.00 72 1015.2
20260507185002 14 43 1.6 4.8 0.00 0.00 0.00 72 1015.2
20260507184502 14 51 1.6 4.8 0.00 0.00 0.00 72 1015.2
20260507184023 15 56 1.6 4.8 0.00 0.00 0.00 73 1015.3
20260507183502 15 56 1.6 4.8 0.00 0.00 0.00 72 1015.4
20260507183002 15 66 1.6 4.8 0.00 0.00 0.00 72 1015.3
20260507182502 15 80 1.6 4.8 0.00 0.00 0.00 72 1015.3
20260507182002 15 84 1.6 4.8 0.00 0.00 0.00 72 1015.4
20260507181502 15 93 1.6 4.8 0.00 0.00 0.00 72 1015.3
20260507181002 15 98 1.6 4.8 0.00 0.00 0.00 72 1015.4
20260507180502 16 98 1.6 4.8 0.00 0.00 0.00 72 1015.4
20260507180002 16 98 1.6 4.8 0.00 0.00 0.00 72 1015.4
20260507175502 16 100 1.6 4.8 0.00 0.00 0.00 71 1015.5
20260507175002 16 91 1.6 6.4 0.00 0.00 0.00 71 1015.5
20260507174502 16 89 1.6 6.4 0.00 0.00 0.00 71 1015.5
20260507174002 16 90 1.6 4.8 0.00 0.00 0.00 71 1015.5
20260507173502 16 84 3.2 4.8 0.00 0.00 0.00 71 1015.5
20260507173002 16 84 1.6 4.8 0.00 0.00 0.00 70 1015.6
20260507172502 16 90 1.6 6.4 0.00 0.00 0.00 70 1015.5
20260507172023 17 88 3.2 6.4 0.00 0.00 0.00 70 1015.5
20260507171502 17 79 3.2 6.4 0.00 0.00 0.00 69 1015.5
20260507171023 17 81 3.2 6.4 0.00 0.00 0.00 69 1015.4
20260507170502 17 91 3.2 6.4 0.00 0.00 0.00 69 1015.6
20260507170002 17 88 3.2 9.7 0.00 0.00 0.00 68 1015.6
20260507165502 18 88 3.2 9.7 0.00 0.00 0.00 68 1015.6
20260507165002 18 94 1.6 6.4 0.00 0.00 0.00 67 1015.6
20260507164502 18 85 3.2 6.4 0.00 0.00 0.00 67 1015.7
20260507164023 19 89 3.2 6.4 0.00 0.00 0.00 67 1015.7
20260507163502 19 87 3.2 6.4 0.00 0.00 0.00 67 1015.7
20260507163002 19 89 3.2 6.4 0.00 0.00 0.00 68 1015.7
20260507162502 19 94 3.2 9.7 0.00 0.00 0.00 68 1015.7
20260507162002 19 93 3.2 9.7 0.00 0.00 0.00 68 1015.7
20260507161502 19 97 3.2 6.4 0.00 0.00 0.00 67 1015.8
20260507161002 19 95 3.2 6.4 0.00 0.00 0.00 67 1015.8
20260507160502 19 83 3.2 6.4 0.00 0.00 0.00 67 1015.8
20260507160002 19 85 3.2 6.4 0.00 0.00 0.00 66 1015.9
20260507155523 20 92 3.2 6.4 0.00 0.00 0.00 67 1015.8
20260507155002 20 88 3.2 11.3 0.00 0.00 0.00 66 1015.9
20260507154502 20 93 3.2 11.3 0.00 0.00 0.00 64 1015.8
20260507154002 20 96 3.2 8.0 0.00 0.00 0.00 64 1015.9
20260507153502 21 95 3.2 9.7 0.00 0.00 0.00 63 1015.8
20260507153023 21 96 3.2 9.7 0.00 0.00 0.00 63 1015.9
20260507152502 21 95 3.2 9.7 0.00 0.00 0.00 61 1016.0
20260507152002 21 88 3.2 9.7 0.00 0.00 0.00 60 1016.0
20260507151502 21 87 3.2 8.0 0.00 0.00 0.00 60 1016.1
20260507151023 22 92 3.2 8.0 0.00 0.00 0.00 61 1016.0
20260507150502 22 90 3.2 12.9 0.00 0.00 0.00 62 1016.1
20260507150024 22 95 3.2 12.9 0.00 0.00 0.00 62 1016.1
20260507145502 22 96 3.2 12.9 0.00 0.00 0.00 62 1016.2
20260507145002 22 89 3.2 8.0 0.00 0.00 0.00 61 1016.2
20260507144502 22 110 3.2 11.3 0.00 0.00 0.00 62 1016.2
20260507144002 21 129 3.2 11.3 0.00 0.00 0.00 62 1016.2
20260507143523 21 116 3.2 11.3 0.00 0.00 0.00 62 1016.3
20260507143002 21 128 3.2 12.9 0.00 0.00 0.00 61 1016.3
20260507142502 22 118 3.2 12.9 0.00 0.00 0.00 60 1016.3
20260507142002 22 93 4.8 11.3 0.00 0.00 0.00 60 1016.3
20260507141502 22 111 4.8 11.3 0.00 0.00 0.00 62 1016.3
20260507141002 22 114 3.2 11.3 0.00 0.00 0.00 62 1016.5
20260507140502 21 107 3.2 11.3 0.00 0.00 0.00 64 1016.5
20260507140003 21 126 3.2 11.3 0.00 0.00 0.00 64 1016.4
20260507135523 21 148 4.8 11.3 0.00 0.00 0.00 63 1016.5
20260507135002 21 137 3.2 11.3 0.00 0.00 0.00 63 1016.5
20260507134502 22 112 3.2 11.3 0.00 0.00 0.00 62 1016.5
20260507134002 21 97 4.8 11.3 0.00 0.00 0.00 62 1016.5
20260507133502 21 92 3.2 9.7 0.00 0.00 0.00 62 1016.6
20260507133023 21 78 4.8 8.0 0.00 0.00 0.00 62 1016.6
20260507132523 22 83 4.8 9.7 0.00 0.00 0.00 63 1016.5
20260507132002 22 116 3.2 9.7 0.00 0.00 0.00 62 1016.6
20260507131502 22 99 3.2 9.7 0.00 0.00 0.00 63 1016.6
20260507131002 22 96 3.2 12.9 0.00 0.00 0.00 63 1016.6
20260507130502 21 93 3.2 12.9 0.00 0.00 0.00 63 1016.7
20260507130002 21 103 3.2 6.4 0.00 0.00 0.00 64 1016.7
20260507125502 21 113 3.2 8.0 0.00 0.00 0.00 63 1016.7
20260507125002 21 113 3.2 11.3 0.00 0.00 0.00 64 1016.7
20260507124523 21 104 3.2 11.3 0.00 0.00 0.00 64 1016.7
20260507124002 21 96 4.8 11.3 0.00 0.00 0.00 66 1016.7
20260507123502 21 114 4.8 11.3 0.00 0.00 0.00 65 1016.7
20260507123002 21 122 3.2 9.7 0.00 0.00 0.00 64 1016.8
20260507122502 21 116 3.2 11.3 0.00 0.00 0.00 63 1016.8
20260507122023 21 138 3.2 11.3 0.00 0.00 0.00 63 1016.8
20260507121524 21 113 3.2 11.3 0.00 0.00 0.00 63 1016.8
20260507121002 21 90 4.8 11.3 0.00 0.00 0.00 64 1016.8
20260507120502 21 97 3.2 11.3 0.00 0.00 0.00 63 1016.8
20260507120002 21 104 3.2 8.0 0.00 0.00 0.00 64 1016.8
20260507115502 21 103 3.2 8.0 0.00 0.00 0.00 64 1016.8
20260507115002 21 106 3.2 9.7 0.00 0.00 0.00 64 1016.9
20260507114502 21 107 4.8 9.7 0.00 0.00 0.00 64 1016.8
20260507114023 21 113 3.2 9.7 0.00 0.00 0.00 64 1016.9
20260507113502 21 101 3.2 9.7 0.00 0.00 0.00 65 1016.8
20260507113024 21 95 3.2 11.3 0.00 0.00 0.00 67 1016.9
20260507112502 21 133 3.2 11.3 0.00 0.00 0.00 67 1016.9
20260507112002 20 129 4.8 12.9 0.00 0.00 0.00 66 1016.9
20260507111503 20 123 4.8 16.1 0.00 0.00 0.00 68 1017.0
20260507111023 20 122 3.2 16.1 0.00 0.00 0.00 67 1016.9
20260507110502 20 125 3.2 9.7 0.00 0.00 0.00 68 1016.9
20260507110002 20 128 3.2 14.5 0.00 0.00 0.00 68 1016.9
20260507105502 20 119 3.2 14.5 0.00 0.00 0.00 68 1016.9
20260507105023 20 119 3.2 11.3 0.00 0.00 0.00 69 1016.8
20260507104502 19 114 3.2 12.9 0.00 0.00 0.00 70 1016.9
20260507104003 19 128 3.2 12.9 0.00 0.00 0.00 69 1016.9
20260507103502 18 142 3.2 8.0 0.00 0.00 0.00 70 1016.9
20260507103002 18 130 3.2 9.7 0.00 0.00 0.00 70 1016.9
20260507102502 18 110 3.2 9.7 0.00 0.00 0.00 70 1016.9
20260507102002 18 119 3.2 9.7 0.00 0.00 0.00 71 1016.8
20260507101502 18 121 3.2 11.3 0.00 0.00 0.00 70 1016.9
20260507101002 17 110 3.2 11.3 0.00 0.00 0.00 70 1016.8
20260507100503 17 110 3.2 11.3 0.00 0.00 0.00 71 1016.8
20260507100003 17 115 3.2 11.3 0.00 0.00 0.00 71 1016.9
20260507095502 17 122 3.2 11.3 0.00 0.00 0.00 71 1016.8
20260507095002 17 97 3.2 11.3 0.00 0.00 0.00 71 1016.8
20260507094523 17 87 3.2 11.3 0.00 0.00 0.00 72 1016.8
20260507094002 17 91 4.8 11.3 0.00 0.00 0.00 72 1016.7
20260507093502 16 95 3.2 11.3 0.00 0.00 0.00 73 1016.7
20260507093002 16 101 3.2 6.4 0.00 0.00 0.00 73 1016.7
20260507092502 16 95 3.2 9.7 0.00 0.00 0.00 73 1016.7
20260507092003 16 89 4.8 9.7 0.00 0.00 0.00 74 1016.7
20260507091503 16 89 3.2 9.7 0.00 0.00 0.00 75 1016.8
20260507091002 15 90 3.2 9.7 0.00 0.00 0.00 76 1016.7
20260507090502 15 89 3.2 9.7 0.00 0.00 0.00 75 1016.8
20260507090023 15 90 3.2 9.7 0.00 0.00 0.00 75 1016.7
20260507085502 15 89 4.8 9.7 0.00 0.00 0.00 76 1016.8
20260507085002 15 89 3.2 9.7 0.00 0.00 0.00 77 1016.8
20260507084523 15 91 3.2 11.3 0.00 0.00 0.00 78 1016.7
20260507084002 14 95 3.2 11.3 0.00 0.00 0.00 79 1016.8
20260507083502 14 95 3.2 6.4 0.00 0.00 0.00 79 1016.9
20260507083002 13 96 3.2 6.4 0.00 0.00 0.00 79 1016.8
20260507082524 13 93 3.2 6.4 0.00 0.00 0.00 80 1016.9
20260507082003 13 94 3.2 6.4 0.00 0.00 0.00 80 1016.7
20260507081524 13 98 3.2 6.4 0.00 0.00 0.00 80 1016.6
20260507081003 13 94 3.2 6.4 0.00 0.00 0.00 80 1016.6
20260507080503 13 95 3.2 6.4 0.00 0.00 0.00 81 1016.7
20260507080003 12 88 3.2 6.4 0.00 0.00 0.00 81 1016.7
20260507075523 12 80 3.2 6.4 0.00 0.00 0.00 81 1016.6
20260507075023 12 84 1.6 6.4 0.00 0.00 0.00 81 1016.6
20260507074502 12 80 3.2 6.4 0.00 0.00 0.00 81 1016.5
20260507074024 12 81 3.2 6.4 0.00 0.00 0.00 82 1016.4
20260507073503 12 88 1.6 6.4 0.00 0.00 0.00 82 1016.5
20260507073002 12 71 1.6 8.0 0.00 0.00 0.00 82 1016.4
20260507072523 11 73 1.6 8.0 0.00 0.00 0.00 82 1016.4
20260507072002 11 78 1.6 4.8 0.00 0.00 0.00 82 1016.4
20260507071502 11 76 1.6 4.8 0.00 0.00 0.00 82 1016.3
20260507071003 11 76 1.6 4.8 0.00 0.00 0.00 82 1016.3
20260507070524 11 77 1.6 4.8 0.00 0.00 0.00 82 1016.2
20260507070024 10 52 1.6 4.8 0.00 0.00 0.00 81 1016.3
20260507065502 10 25 0.0 4.8 0.00 0.00 0.00 81 1016.4
20260507065002 10 13 1.6 8.0 0.00 0.00 0.00 81 1016.3
20260507064502 10 18 1.6 8.0 0.00 0.00 0.00 81 1016.4
20260507064023 10 38 1.6 6.4 0.00 0.00 0.00 81 1016.5
20260507063502 9 35 1.6 6.4 0.00 0.00 0.00 81 1016.5
20260507063003 9 6 1.6 6.4 0.00 0.00 0.00 81 1016.4
20260507062502 9 5 1.6 6.4 0.00 0.00 0.00 80 1016.3
20260507062023 8 7 1.6 6.4 0.00 0.00 0.00 80 1016.4
20260507061502 8 3 1.6 8.0 0.00 0.00 0.00 80 1016.3
20260507061003 8 2 1.6 8.0 0.00 0.00 0.00 80 1016.3
20260507060503 8 356 1.6 4.8 0.00 0.00 0.00 80 1016.2
20260507060003 8 10 1.6 6.4 0.00 0.00 0.00 79 1016.3
20260507055503 8 13 1.6 6.4 0.00 0.00 0.00 79 1016.2
20260507055003 8 11 1.6 6.4 0.00 0.00 0.00 79 1016.0
20260507054503 8 15 1.6 6.4 0.00 0.00 0.00 79 1016.0
20260507054024 8 24 1.6 6.4 0.00 0.00 0.00 79 1016.0
20260507053503 8 23 1.6 8.0 0.00 0.00 0.00 79 1016.0
20260507053003 8 17 1.6 8.0 0.00 0.00 0.00 78 1015.9
20260507052523 8 11 1.6 6.4 0.00 0.00 0.00 78 1015.8
20260507052002 8 15 1.6 4.8 0.00 0.00 0.00 78 1015.9
20260507051502 8 15 1.6 6.4 0.00 0.00 0.00 78 1015.8
20260507051003 8 8 1.6 8.0 0.00 0.00 0.00 78 1015.9
20260507050503 8 13 1.6 8.0 0.00 0.00 0.00 78 1015.8
20260507050003 8 25 1.6 8.0 0.00 0.00 0.00 78 1015.9
20260507045503 8 35 1.6 6.4 0.00 0.00 0.00 78 1015.8
20260507045003 8 21 1.6 8.0 0.00 0.00 0.00 78 1015.7
20260507044524 8 15 1.6 8.0 0.00 0.00 0.00 77 1015.7
20260507044024 8 27 1.6 8.0 0.00 0.00 0.00 77 1015.6
20260507043524 8 32 3.2 6.4 0.00 0.00 0.00 77 1015.6
20260507043024 8 29 1.6 6.4 0.00 0.00 0.00 77 1015.6
20260507042523 8 18 1.6 8.0 0.00 0.00 0.00 77 1015.6
20260507042002 8 30 1.6 8.0 0.00 0.00 0.00 77 1015.6
20260507041502 8 22 1.6 11.3 0.00 0.00 0.00 77 1015.6
20260507041003 8 30 1.6 11.3 0.00 0.00 0.00 77 1015.7
20260507040503 8 35 1.6 8.0 0.00 0.00 0.00 77 1015.6
20260507040003 8 14 3.2 8.0 0.00 0.00 0.00 77 1015.6
20260507035503 8 8 3.2 12.9 0.00 0.00 0.00 77 1015.6
20260507035003 8 16 3.2 12.9 0.00 0.00 0.00 77 1015.6
20260507034503 8 27 1.6 12.9 0.00 0.00 0.00 77 1015.6
20260507034003 8 24 1.6 6.4 0.00 0.00 0.00 77 1015.6
20260507033503 8 24 1.6 6.4 0.00 0.00 0.00 77 1015.6
20260507033003 8 24 1.6 6.4 0.00 0.00 0.00 77 1015.6
20260507032503 8 20 1.6 6.4 0.00 0.00 0.00 77 1015.6
20260507032003 8 11 1.6 4.8 0.00 0.00 0.00 77 1015.6
20260507031502 8 5 1.6 8.0 0.00 0.00 0.00 77 1015.6
20260507031002 8 7 1.6 8.0 0.00 0.00 0.00 77 1015.6
20260507030503 8 10 1.6 4.8 0.00 0.00 0.00 77 1015.6
20260507030003 9 24 1.6 4.8 0.00 0.00 0.00 77 1015.6
20260507025503 9 30 1.6 4.8 0.00 0.00 0.00 77 1015.5
20260507025024 9 31 1.6 4.8 0.00 0.00 0.00 77 1015.5
20260507024503 9 31 0.0 4.8 0.00 0.00 0.00 77 1015.5
20260507024024 9 357 1.6 4.8 0.00 0.00 0.00 77 1015.4
20260507023502 9 352 1.6 8.0 0.00 0.00 0.00 77 1015.4
20260507023002 9 357 1.6 8.0 0.00 0.00 0.00 78 1015.4
20260507022503 9 4 3.2 8.0 0.00 0.00 0.00 78 1015.4
20260507022002 9 6 3.2 8.0 0.00 0.00 0.00 78 1015.5
20260507021503 10 15 1.6 6.4 0.00 0.00 0.00 78 1015.4
20260507021003 10 17 1.6 6.4 0.00 0.00 0.00 78 1015.4
20260507020524 10 20 1.6 6.4 0.00 0.00 0.00 78 1015.5
20260507020024 10 27 0.0 4.8 0.00 0.00 0.00 79 1015.4
20260507015503 10 9 1.6 4.8 0.00 0.00 0.00 79 1015.5
20260507015003 10 3 1.6 6.4 0.00 0.00 0.00 79 1015.5
20260507014503 10 3 1.6 6.4 0.00 0.00 0.00 79 1015.5
20260507014002 10 6 0.0 3.2 0.00 0.00 0.00 79 1015.4
20260507013503 10 358 1.6 4.8 0.00 0.00 0.00 79 1015.5
20260507013002 10 353 1.6 4.8 0.00 0.00 0.00 78 1015.5
20260507012502 10 336 0.0 4.8 0.00 0.00 0.00 78 1015.5
20260507012002 10 0 0.0 0.0 0.00 0.00 0.00 78 1015.5
20260507011524 10 0 0.0 0.0 0.00 0.00 0.00 78 1015.6
20260507011003 10 0 0.0 0.0 0.00 0.00 0.00 78 1015.5
20260507010524 10 336 0.0 1.6 0.00 0.00 0.00 78 1015.5
20260507010003 10 336 0.0 3.2 0.00 0.00 0.00 79 1015.5
20260507005503 10 336 0.0 3.2 0.00 0.00 0.00 79 1015.5
20260507005003 10 0 0.0 0.0 0.00 0.00 0.00 79 1015.4
20260507004503 10 0 0.0 0.0 0.00 0.00 0.00 79 1015.5
20260507004003 10 336 0.0 1.6 0.00 0.00 0.00 79 1015.5
20260507003503 10 336 0.0 1.6 0.00 0.00 0.00 79 1015.6
20260507003003 10 335 0.0 1.6 0.00 0.00 0.00 79 1015.6
20260507002503 10 335 0.0 3.2 0.00 0.00 0.00 79 1015.6
20260507002003 10 330 0.0 3.2 0.00 0.00 0.00 79 1015.6
20260507001503 10 326 0.0 3.2 0.00 0.00 0.00 79 1015.6
20260507001003 10 322 0.0 4.8 0.00 0.00 0.00 79 1015.6
20260507000503 10 321 1.6 4.8 0.00 0.00 0.00 79 1015.6
20260507000003 10 321 0.0 4.8 0.00 0.00 0.00 79 1015.7
20260506235502 10 330 0.0 1.6 0.00 0.00 0.00 79 1015.6
20260506235003 10 330 0.0 3.2 0.00 0.00 0.00 79 1015.7
20260506234503 10 330 0.0 3.2 0.00 0.00 0.00 79 1015.6
20260506234003 10 329 0.0 1.6 0.00 0.00 0.00 79 1015.6
20260506233503 10 329 0.0 1.6 0.00 0.00 0.00 79 1015.5
20260506233024 10 327 0.0 4.8 0.00 0.00 0.00 78 1015.6
20260506232503 10 326 0.0 4.8 0.00 0.00 0.00 78 1015.6
20260506232024 10 0 0.0 0.0 0.00 0.00 0.00 78 1015.6
20260506231503 10 0 0.0 0.0 0.00 0.00 0.00 78 1015.6
20260506231003 10 0 0.0 0.0 0.00 0.00 0.00 78 1015.5
20260506230503 10 0 0.0 0.0 0.00 0.00 0.00 78 1015.5
20260506230003 10 0 0.0 0.0 0.00 0.00 0.00 78 1015.5
20260506225503 10 0 0.0 0.0 0.00 0.00 0.00 78 1015.6
20260506225003 10 0 0.0 0.0 0.00 0.00 0.00 78 1015.6
20260506224503 10 0 0.0 0.0 0.00 0.00 0.00 78 1015.6
20260506224003 10 0 0.0 0.0 0.00 0.00 0.00 78 1015.6
20260506223503 11 0 0.0 0.0 0.00 0.00 0.00 78 1015.6
20260506223003 11 0 0.0 0.0 0.00 0.00 0.00 78 1015.6
20260506222503 11 0 0.0 0.0 0.00 0.00 0.00 78 1015.6
20260506222003 11 0 0.0 0.0 0.00 0.00 0.00 78 1015.6
20260506221503 11 0 0.0 0.0 0.00 0.00 0.00 78 1015.6
20260506221003 11 0 0.0 0.0 0.00 0.00 0.00 78 1015.5
20260506220503 11 0 0.0 0.0 0.00 0.00 0.00 78 1015.5
20260506220003 11 0 0.0 0.0 0.00 0.00 0.00 78 1015.6
20260506215503 11 0 0.0 0.0 0.00 0.00 0.00 78 1015.5
20260506215024 11 0 0.0 0.0 0.00 0.00 0.00 77 1015.5
20260506214503 11 0 0.0 0.0 0.00 0.00 0.00 77 1015.5
20260506214003 11 0 0.0 0.0 0.00 0.00 0.00 77 1015.4